This is the latest recevied weather packets stored in our database for station/object JE4YKI-13. If no packets are shown the sender has not sent any weather packets the latest 10 day(s).
| Time | Temp. | Humidity | Pressure | Rain* | Wind** | Luminosity | Snow |
|---|---|---|---|---|---|---|---|
| 1777798671 | 15.56° C | 96% | 1000.1 hPa | 4.83 mm | - | - | - |
| 1777798071 | 15.56° C | 96% | 999.9 hPa | 7.37 mm | - | - | - |
| 1777797470 | 15.56° C | 96% | 1000 hPa | 5.33 mm | - | - | - |
| 1777796870 | 16.11° C | 96% | 1000 hPa | 3.81 mm | - | - | - |
| 1777796275 | 16.11° C | 96% | 999.9 hPa | 6.86 mm | - | - | - |
| 1777795669 | 16.67° C | 96% | 1000.2 hPa | 8.64 mm | - | - | - |
| 1777795069 | 16.67° C | 97% | 1000.1 hPa | 6.1 mm | - | - | - |
| 1777794469 | 16.67° C | 98% | 1000.4 hPa | 11.18 mm | - | - | - |
| 1777793267 | 15° C | 97% | 1000.4 hPa | 29.72 mm | - | - | - |
| 1777792667 | 15° C | 96% | 1000.4 hPa | 6.6 mm | - | - | - |
| 1777792067 | 15° C | 97% | 1000.3 hPa | 9.91 mm | - | - | - |
| 1777791466 | 15° C | 96% | 1000.2 hPa | 7.62 mm | - | - | - |
| 1777790866 | 15° C | 96% | 1000.5 hPa | 10.92 mm | - | - | - |
| 1777790266 | 15° C | 96% | 1000.8 hPa | 10.16 mm | - | - | - |
| 1777789664 | 15° C | 96% | 1001 hPa | 31.75 mm | - | - | - |
| 1777789064 | 15° C | 96% | 1001 hPa | 5.33 mm | - | - | - |
| 1777788463 | 15° C | 96% | 1001.4 hPa | 6.86 mm | - | - | - |
| 1777786060 | 15° C | 96% | 1002.1 hPa | 10.41 mm | - | - | - |
| 1777785460 | 15° C | 96% | 1002.3 hPa | 18.03 mm | - | - | - |
| 1777784859 | 15° C | 96% | 1002.5 hPa | 6.1 mm | - | - | - |
| 1777784259 | 15° C | 95% | 1002.6 hPa | 9.91 mm | - | - | - |
| 1777783658 | 15° C | 95% | 1002.6 hPa | 3.05 mm | - | - | - |
| 1777783058 | 15° C | 95% | 1002.9 hPa | 6.6 mm | - | - | - |
| 1777782457 | 15.56° C | 95% | 1003.3 hPa | 16 mm | - | - | - |
| 1777781857 | 15.56° C | 95% | 1003.3 hPa | 7.11 mm | - | - | - |
* Rain latest hour (hover to see other rain measurements)
** Current wind speed in m/s (hover to see current wind gust speed)